STARLINK-4426, 53484

Orbit data source: Space-Track

STARLINK-4426, 53484 is a payload satellite owned by SpaceX/Seattle (US) in SSO that was launched on Fri, 12 Aug 2022 UTC via an FALCON 9 launch vehicle from the Air Force Western Test Range (AFWTR). Payload-class satellites include a variety of spacecraft equipped with specific instruments for various scientific and technological missions. These include communications satellites like Starlink; space stations such as the ISS; scientific satellites like the Hubble; Earth observation satellites from companies like Planet Labs, Umbra, and HawkEye 360; GPS; miniature CubeSats for education and research; and military/defense satellites.

Loading next visibility...
Identifier
53484, 2022-099V
Orbit
SSO
Country
Flag of USUS
Related business
Manufacturer
SpaceX/Seattle
Mission
Operational Commercial Communications
Bus & Motor
STARLINK, Unknown motor
Mass
300 kg wet, ~275 kg dry
Launch date (UTC)
2022-08-12 (4 years ago)
Launch vehicle
FALCON 9
Launch site
Air Force Western Test Range (AFWTR)
Object type
Payload
Rocket body
Debris
Shape & HBR
Box + 1 Pan, 10.1 m
Radar Cross Section
13.562 m², Large (>1 m²)

Expand to show TLE details & history
Last TLE update: 2 days ago

TLE from 2 days ago
0 STARLINK-4426
1 53484U 22099V   26171.28668770  .00003855  00000-0  27103-3 0  9994
2 53484  97.3378 291.2211 0000973  21.3814 338.7454 15.05645499211487
Epoch: 2026-06-20T06:52Z
TLE epoch observation values (Epoch: 2026-06-20T06:52:49.817Z)
Latitude
-0.00001°
Longitude
-80.48995°
Altitude
551.969 km
Speed
7.586 km/s
True Right ascension
19h 24m 53s
True Declination
0° 00' 00"
Sunlit
Object was in full shadow at epoch
Visualization orbit readout
Latitude
Unknown
Longitude
Unknown
Altitude
Unknown
Speed
Unknown
Apparent Right ascension
Unknown
Apparent Declination
Unknown
Sunlit
N/A
Visualization observer readout
Local Sidereal Time
23:20:19
Azimuth
Unknown
Elevation
Unknown
Doppler factor
Unknown
Orbital elements
Apogee altitude
547.181 km
Perigee altitude
545.833 km
Semi-major axis
6,924.644 km
Eccentricity
0.0001
Inclination
97.3378°
RAAN
291.2211°
Arg. of periapsis
21.3814°
True anomaly
338.74136°
Mean anomaly
338.7454°
Eccentric anomaly
338.74338°
Mean motion
3.76658 °/min
Orbital period
95.58 mins
BSTAR
0.00027103
Loading maneuver chart data...
Computing Atmospheric mass density...
Loading historical data...
Loading historical data...
Loading historical data...
Loading historical data...
Loading historical data...
Loading historical data...
Loading historical data...

Documentation

Showing up to 5 results
|